Time,TemperatureF,DewpointF,PressureIn,WindDirection,WindDirectionDegrees,WindSpeedMPH,WindSpeedGustMPH,Humidity,HourlyPrecipIn,Conditions,Clouds,dailyrainin,SolarRadiationWatts/m^2,SoftwareType,DateUTC
2013-03-06 00:11:00,56.0,54.0,-100.00,NNE,13,6.0,8.0,94,0.00,,,0.00,0.000000,,2013-03-06 10:11:00,
2013-03-06 00:21:00,56.0,54.0,-100.00,NNE,13,6.0,8.0,94,0.00,,,0.00,0.000000,,2013-03-06 10:21:00,
2013-03-06 00:31:00,56.0,54.0,-100.00,NNE,13,6.0,8.0,94,0.00,,,0.00,0.000000,,2013-03-06 10:31:00,
2013-03-06 00:42:00,56.0,54.0,-100.00,NNE,13,6.0,8.0,94,0.00,,,0.00,0.000000,,2013-03-06 10:42:00,
2013-03-06 01:11:00,55.0,53.0,-100.00,North,4,4.0,10.0,92,0.00,,,0.00,0.000000,,2013-03-06 11:11:00,
2013-03-06 01:22:00,55.0,53.0,-100.00,North,4,4.0,10.0,92,0.00,,,0.00,0.000000,,2013-03-06 11:22:00,
2013-03-06 01:32:00,55.0,53.0,-100.00,North,4,4.0,10.0,92,0.00,,,0.00,0.000000,,2013-03-06 11:32:00,
2013-03-06 01:42:00,55.0,53.0,-100.00,North,4,4.0,10.0,92,0.00,,,0.00,0.000000,,2013-03-06 11:42:00,
2013-03-06 02:11:00,55.0,51.0,-100.00,NNW,333,6.0,9.0,85,0.00,,,-99.99,0.000000,,2013-03-06 12:11:00,
2013-03-06 02:21:00,55.0,51.0,-100.00,NNW,333,6.0,9.0,85,0.00,,,-99.99,0.000000,,2013-03-06 12:21:00,
2013-03-06 02:32:00,55.0,51.0,-100.00,NNW,333,6.0,9.0,85,0.00,,,-99.99,0.000000,,2013-03-06 12:32:00,
2013-03-06 02:42:00,55.0,51.0,-100.00,NNW,333,6.0,9.0,85,0.00,,,-99.99,0.000000,,2013-03-06 12:42:00,
2013-03-06 03:11:00,57.0,52.0,-100.00,NNE,14,3.0,8.0,82,0.00,,,0.00,0.000000,,2013-03-06 13:11:00,
2013-03-06 03:21:00,57.0,52.0,-100.00,NNE,14,3.0,8.0,82,0.00,,,0.00,0.000000,,2013-03-06 13:21:00,
2013-03-06 03:32:00,57.0,52.0,-100.00,NNE,14,3.0,8.0,82,0.00,,,0.00,0.000000,,2013-03-06 13:32:00,
2013-03-06 03:42:00,57.0,52.0,-100.00,NNE,14,3.0,8.0,82,0.00,,,0.00,0.000000,,2013-03-06 13:42:00,
2013-03-06 04:11:00,57.0,52.0,-100.00,NW,323,6.0,8.0,82,0.00,,,0.00,0.000000,,2013-03-06 14:11:00,
2013-03-06 04:21:00,57.0,52.0,-100.00,NW,323,6.0,8.0,82,0.00,,,0.00,0.000000,,2013-03-06 14:21:00,
2013-03-06 04:32:00,57.0,52.0,-100.00,NW,323,6.0,8.0,82,0.00,,,0.00,0.000000,,2013-03-06 14:32:00,
2013-03-06 04:41:00,57.0,52.0,-100.00,NW,323,6.0,8.0,82,0.00,,,0.00,0.000000,,2013-03-06 14:41:00,
2013-03-06 05:11:00,53.0,51.0,-100.00,North,4,3.0,9.0,92,0.00,,,0.00,0.000000,,2013-03-06 15:11:00,
2013-03-06 05:21:00,53.0,51.0,-100.00,North,4,3.0,9.0,92,0.00,,,0.00,0.000000,,2013-03-06 15:21:00,
2013-03-06 05:32:00,53.0,51.0,-100.00,North,4,3.0,9.0,92,0.00,,,0.00,0.000000,,2013-03-06 15:32:00,
2013-03-06 05:41:00,53.0,51.0,-100.00,North,4,3.0,9.0,92,0.00,,,0.00,0.000000,,2013-03-06 15:41:00,
2013-03-06 06:11:00,54.0,51.0,-100.00,North,359,5.0,9.0,91,0.00,,,-99.99,0.000000,,2013-03-06 16:11:00,
2013-03-06 06:21:00,54.0,51.0,-100.00,North,359,5.0,9.0,91,0.00,,,-99.99,0.000000,,2013-03-06 16:21:00,
2013-03-06 06:32:00,54.0,51.0,-100.00,North,359,5.0,9.0,91,0.00,,,-99.99,0.000000,,2013-03-06 16:32:00,
2013-03-06 06:41:00,54.0,51.0,-100.00,North,359,5.0,9.0,91,0.00,,,-99.99,0.000000,,2013-03-06 16:41:00,
2013-03-06 07:11:00,53.0,50.0,-100.00,North,2,5.0,9.0,91,0.00,,,0.00,1.000000,,2013-03-06 17:11:00,
2013-03-06 07:21:00,53.0,50.0,-100.00,North,2,5.0,9.0,91,0.00,,,0.00,1.000000,,2013-03-06 17:21:00,
2013-03-06 07:32:00,53.0,50.0,-100.00,North,2,5.0,9.0,91,0.00,,,0.00,1.000000,,2013-03-06 17:32:00,
2013-03-06 07:41:00,53.0,50.0,-100.00,North,2,5.0,9.0,91,0.00,,,0.00,1.000000,,2013-03-06 17:41:00,
2013-03-06 08:28:00,60.0,53.0,-100.00,North,8,6.0,12.0,78,0.00,,,0.00,66.000000,,2013-03-06 18:28:00,
2013-03-06 08:42:00,60.0,53.0,-100.00,North,8,6.0,12.0,78,0.00,,,0.00,66.000000,,2013-03-06 18:42:00,
2013-03-06 09:02:00,72.0,54.0,-100.00,ENE,63,7.0,13.0,54,0.00,,,0.00,327.000000,,2013-03-06 19:02:00,
2013-03-06 09:11:00,72.0,54.0,-100.00,ENE,63,7.0,13.0,54,0.00,,,0.00,327.000000,,2013-03-06 19:11:00,
2013-03-06 09:21:00,72.0,54.0,-100.00,ENE,63,7.0,13.0,54,0.00,,,0.00,327.000000,,2013-03-06 19:21:00,
2013-03-06 09:32:00,72.0,54.0,-100.00,ENE,63,7.0,13.0,54,0.00,,,0.00,327.000000,,2013-03-06 19:32:00,
2013-03-06 09:42:00,72.0,54.0,-100.00,ENE,63,7.0,13.0,54,0.00,,,0.00,327.000000,,2013-03-06 19:42:00,
2013-03-06 10:11:00,74.0,58.0,-100.00,ESE,123,5.0,13.0,57,0.00,,,0.00,576.000000,,2013-03-06 20:11:00,
2013-03-06 10:22:00,74.0,58.0,-100.00,ESE,123,5.0,13.0,57,0.00,,,0.00,576.000000,,2013-03-06 20:22:00,
2013-03-06 10:32:00,74.0,58.0,-100.00,ESE,123,5.0,13.0,57,0.00,,,0.00,576.000000,,2013-03-06 20:32:00,
2013-03-06 10:42:00,74.0,58.0,-100.00,ESE,123,5.0,13.0,57,0.00,,,0.00,576.000000,,2013-03-06 20:42:00,
2013-03-06 11:11:00,75.0,60.0,-100.00,ESE,115,9.0,17.0,60,0.00,,,0.00,771.000000,,2013-03-06 21:11:00,
2013-03-06 11:22:00,75.0,60.0,-100.00,ESE,115,9.0,17.0,60,0.00,,,0.00,771.000000,,2013-03-06 21:22:00,
2013-03-06 11:32:00,75.0,60.0,-100.00,ESE,115,9.0,17.0,60,0.00,,,0.00,771.000000,,2013-03-06 21:32:00,
2013-03-06 11:42:00,75.0,60.0,-100.00,ESE,115,9.0,17.0,60,0.00,,,0.00,771.000000,,2013-03-06 21:42:00,
2013-03-06 12:11:00,73.0,60.0,-100.00,ESE,115,9.0,19.0,64,0.00,,,0.00,727.000000,,2013-03-06 22:11:00,
2013-03-06 12:21:00,73.0,60.0,-100.00,ESE,115,9.0,19.0,64,0.00,,,0.00,727.000000,,2013-03-06 22:21:00,
2013-03-06 12:32:00,73.0,60.0,-100.00,ESE,115,9.0,19.0,64,0.00,,,0.00,727.000000,,2013-03-06 22:32:00,
2013-03-06 12:41:00,73.0,60.0,-100.00,ESE,115,9.0,19.0,64,0.00,,,0.00,727.000000,,2013-03-06 22:41:00,
2013-03-06 13:11:00,70.0,59.0,-100.00,ESE,109,9.0,16.0,69,0.00,,,0.00,633.000000,,2013-03-06 23:11:00,
2013-03-06 13:21:00,70.0,59.0,-100.00,ESE,109,9.0,16.0,69,0.00,,,0.00,633.000000,,2013-03-06 23:21:00,
2013-03-06 13:31:00,70.0,59.0,-100.00,ESE,109,9.0,16.0,69,0.00,,,0.00,633.000000,,2013-03-06 23:31:00,
2013-03-06 13:41:00,70.0,59.0,-100.00,ESE,109,9.0,16.0,69,0.00,,,0.00,633.000000,,2013-03-06 23:41:00,
2013-03-06 14:11:00,68.0,61.0,-100.00,SE,130,5.0,14.0,78,0.00,,,0.00,326.000000,,2013-03-07 00:11:00,
2013-03-06 14:21:00,68.0,61.0,-100.00,SE,130,5.0,14.0,78,0.00,,,0.00,326.000000,,2013-03-07 00:21:00,
2013-03-06 14:32:00,68.0,61.0,-100.00,SE,130,5.0,14.0,78,0.00,,,0.00,326.000000,,2013-03-07 00:32:00,
2013-03-06 14:41:00,68.0,61.0,-100.00,SE,130,5.0,14.0,78,0.00,,,0.00,326.000000,,2013-03-07 00:41:00,
2013-03-06 15:11:00,66.0,61.0,-100.00,ESE,117,4.0,9.0,84,0.00,,,0.00,80.000000,,2013-03-07 01:11:00,
2013-03-06 15:21:00,66.0,61.0,-100.00,ESE,117,4.0,9.0,84,0.00,,,0.00,80.000000,,2013-03-07 01:21:00,
2013-03-06 15:31:00,66.0,61.0,-100.00,ESE,117,4.0,9.0,84,0.00,,,0.00,80.000000,,2013-03-07 01:31:00,
2013-03-06 15:41:00,66.0,61.0,-100.00,ESE,117,4.0,9.0,84,0.00,,,0.00,80.000000,,2013-03-07 01:41:00,
2013-03-06 16:11:00,67.0,60.0,-100.00,SW,223,3.0,10.0,78,0.00,,,0.00,107.000000,,2013-03-07 02:11:00,
2013-03-06 16:21:00,67.0,60.0,-100.00,SW,223,3.0,10.0,78,0.00,,,0.00,107.000000,,2013-03-07 02:21:00,
2013-03-06 16:31:00,67.0,60.0,-100.00,SW,223,3.0,10.0,78,0.00,,,0.00,107.000000,,2013-03-07 02:31:00,
2013-03-06 16:41:00,67.0,60.0,-100.00,SW,223,3.0,10.0,78,0.00,,,0.00,107.000000,,2013-03-07 02:41:00,
2013-03-06 17:11:00,65.0,61.0,-100.00,SE,146,4.0,8.0,87,0.00,,,0.00,34.000000,,2013-03-07 03:11:00,
2013-03-06 17:21:00,65.0,61.0,-100.00,SE,146,4.0,8.0,87,0.00,,,0.00,34.000000,,2013-03-07 03:21:00,
2013-03-06 17:31:00,65.0,61.0,-100.00,SE,146,4.0,8.0,87,0.00,,,0.00,34.000000,,2013-03-07 03:31:00,
2013-03-06 17:41:00,65.0,61.0,-100.00,SE,146,4.0,8.0,87,0.00,,,0.00,34.000000,,2013-03-07 03:41:00,
2013-03-06 18:11:00,64.0,61.0,-100.00,SSW,212,4.0,7.0,91,0.00,,,0.00,9.000000,,2013-03-07 04:11:00,
2013-03-06 18:21:00,64.0,61.0,-100.00,SSW,212,4.0,7.0,91,0.00,,,0.00,9.000000,,2013-03-07 04:21:00,
2013-03-06 18:31:00,64.0,61.0,-100.00,SSW,212,4.0,7.0,91,0.00,,,0.00,9.000000,,2013-03-07 04:31:00,
2013-03-06 18:41:00,64.0,61.0,-100.00,SSW,212,4.0,7.0,91,0.00,,,0.00,9.000000,,2013-03-07 04:41:00,
2013-03-06 19:12:00,63.0,62.0,-100.00,WSW,253,2.0,6.0,96,0.08,,,0.08,2.000000,,2013-03-07 05:12:00,
2013-03-06 19:22:00,63.0,62.0,-100.00,WSW,253,2.0,6.0,96,0.08,,,0.08,2.000000,,2013-03-07 05:22:00,
2013-03-06 19:31:00,63.0,62.0,-100.00,WSW,253,2.0,6.0,96,0.08,,,0.08,2.000000,,2013-03-07 05:31:00,
2013-03-06 19:41:00,63.0,62.0,-100.00,WSW,253,2.0,6.0,96,0.08,,,0.08,2.000000,,2013-03-07 05:41:00,
2013-03-06 20:11:00,62.0,61.0,-100.00,WNW,294,3.0,4.0,97,0.01,,,0.09,0.000000,,2013-03-07 06:11:00,
2013-03-06 20:21:00,62.0,61.0,-100.00,WNW,294,3.0,4.0,97,0.01,,,0.09,0.000000,,2013-03-07 06:21:00,
2013-03-06 20:31:00,62.0,61.0,-100.00,WNW,294,3.0,4.0,97,0.01,,,0.09,0.000000,,2013-03-07 06:31:00,
2013-03-06 20:41:00,62.0,61.0,-100.00,WNW,294,3.0,4.0,97,0.01,,,0.09,0.000000,,2013-03-07 06:41:00,
2013-03-06 21:11:00,63.0,62.0,-100.00,NNW,337,3.0,4.0,97,0.00,,,0.09,0.000000,,2013-03-07 07:11:00,
2013-03-06 21:21:00,63.0,62.0,-100.00,NNW,337,3.0,4.0,97,0.00,,,0.09,0.000000,,2013-03-07 07:21:00,
2013-03-06 21:31:00,63.0,62.0,-100.00,NNW,337,3.0,4.0,97,0.00,,,0.09,0.000000,,2013-03-07 07:31:00,
2013-03-06 21:41:00,63.0,62.0,-100.00,NNW,337,3.0,4.0,97,0.00,,,0.09,0.000000,,2013-03-07 07:41:00,
2013-03-06 22:12:00,60.0,59.0,-100.00,NNE,21,3.0,5.0,98,0.00,,,0.09,0.000000,,2013-03-07 08:12:00,
2013-03-06 22:22:00,60.0,59.0,-100.00,NNE,21,3.0,5.0,98,0.00,,,0.09,0.000000,,2013-03-07 08:22:00,
2013-03-06 22:32:00,60.0,59.0,-100.00,NNE,21,3.0,5.0,98,0.00,,,0.09,0.000000,,2013-03-07 08:32:00,
2013-03-06 22:43:00,60.0,59.0,-100.00,NNE,21,3.0,5.0,98,0.00,,,0.09,0.000000,,2013-03-07 08:43:00,
2013-03-06 23:12:00,59.0,58.0,-100.00,North,5,3.0,5.0,98,0.00,,,0.09,0.000000,,2013-03-07 09:12:00,
2013-03-06 23:22:00,59.0,58.0,-100.00,North,5,3.0,5.0,98,0.00,,,0.09,0.000000,,2013-03-07 09:22:00,
2013-03-06 23:32:00,59.0,58.0,-100.00,North,5,3.0,5.0,98,0.00,,,0.09,0.000000,,2013-03-07 09:32:00,
2013-03-06 23:42:00,59.0,58.0,-100.00,North,5,3.0,5.0,98,0.00,,,0.09,0.000000,,2013-03-07 09:42:00,